DW6276 Weather Reports


Display with metric or nautical units.
time (UTC)temp
F
wind
direction
speed
MPH
gust
MPH
rain 1hr
in
rain 24hr
in
rain mn
in
humidity
%
barometer
mb
20260901164516 82 338 1.0 3.0 0.00 0.00 0.00 65 1014.9
20260901163516 82 315 1.0 2.0 0.00 0.00 0.00 65 1015.0
20260901162516 81 0.0 2.0 0.00 0.00 0.00 67 1015.0
20260901161516 80 225 1.0 3.0 0.00 0.00 0.00 69 1015.2
20260901160536 80 203 2.0 3.0 0.00 0.00 0.00 70 1015.2
20260901155516 79 0.0 2.0 0.00 0.00 0.00 70 1015.3
20260901154516 78 0 1.0 3.0 0.00 0.00 0.00 72 1015.1
20260901153536 77 293 1.0 3.0 0.00 0.00 0.00 73 1015.1
20260901152516 77 248 1.0 2.0 0.00 0.00 0.00 75 1015.1
20260901151516 76 270 1.0 2.0 0.00 0.00 0.00 75 1015.2
20260901150516 75 293 1.0 2.0 0.00 0.00 0.00 79 1015.0
20260901145556 74 45 1.0 3.0 0.00 0.00 0.00 84 1015.1
20260901144536 73 45 2.0 3.0 0.00 0.00 0.00 85 1015.0
20260901143516 72 45 2.0 5.0 0.00 0.00 0.00 87 1015.2
20260901142516 71 0 2.0 4.0 0.00 0.00 0.00 87 1015.4
20260901141516 71 0 1.0 2.0 0.00 0.00 0.00 88 1015.4
20260901140516 70 0.0 1.0 0.00 0.00 0.00 90 1015.3
20260901135515 68 0.0 2.0 0.00 0.00 0.00 92 1015.4
20260901134516 67 0 1.0 2.0 0.00 0.00 0.00 92 1015.5
20260901133516 66 0.0 1.0 0.00 0.00 0.00 93 1015.5
20260901132516 66 0.0 2.0 0.00 0.00 0.00 95 1015.6
20260901131516 64 0.0 2.0 0.00 0.00 0.00 95 1015.5
20260901130515 63 0 1.0 3.0 0.00 0.00 0.00 94 1015.3
20260901125516 63 0 1.0 1.0 0.00 0.00 0.00 95 1015.0
20260901124536 62 0.0 2.0 0.00 0.00 0.00 95 1014.9
20260901123555 60 0.0 0.0 0.00 0.00 0.00 95 1014.7
20260901122516 60 0.0 2.0 0.00 0.00 0.00 94 1015.0
20260901121555 59 0.0 1.0 0.00 0.00 0.00 94 1015.0
20260901120535 59 0.0 0.0 0.00 0.00 0.00 94 1015.0
20260901115516 59 0.0 0.0 0.00 0.00 0.00 94 1014.8
20260901114515 59 0.0 0.0 0.00 0.00 0.00 94 1014.8
20260901113515 58 0.0 2.0 0.00 0.00 0.00 94 1014.5
20260901112515 58 0.0 0.0 0.00 0.00 0.00 93 1014.3
20260901111515 58 0.0 1.0 0.00 0.00 0.00 93 1014.3
20260901110515 58 0.0 0.0 0.00 0.00 0.00 93 1014.1
20260901105535 58 0.0 0.0 0.00 0.00 0.00 93 1014.2
20260901104515 58 0.0 2.0 0.00 0.00 0.00 93 1014.2
20260901103515 58 0.0 0.0 0.00 0.00 0.00 93 1014.3
20260901102515 58 0.0 2.0 0.00 0.00 0.00 93 1014.1
20260901101535 58 0.0 0.0 0.00 0.00 0.00 93 1014.1
20260901100515 58 0.0 0.0 0.00 0.00 0.00 93 1014.0
20260901095515 58 0.0 0.0 0.00 0.00 0.00 93 1014.1
20260901094517 58 0.0 0.0 0.00 0.00 0.00 93 1014.1
20260901093517 59 0.0 0.0 0.00 0.00 0.00 93 1013.9
20260901092517 59 0.0 0.0 0.00 0.00 0.00 93 1014.0
20260901091517 59 0.0 0.0 0.00 0.00 0.00 93 1013.8
20260901090517 59 0.0 0.0 0.00 0.00 0.00 93 1014.1
20260901085537 59 0.0 0.0 0.00 0.00 0.00 93 1014.2
20260901084517 59 0.0 2.0 0.00 0.00 0.00 93 1014.0
20260901083517 59 0.0 1.0 0.00 0.00 0.00 93 1013.9
20260901082517 59 0.0 2.0 0.00 0.00 0.00 93 1013.8
20260901081517 59 0.0 1.0 0.00 0.00 0.00 93 1013.8
20260901080517 59 0.0 2.0 0.00 0.00 0.00 93 1013.8
20260901075557 59 0.0 0.0 0.00 0.00 0.00 93 1013.8
20260901074517 59 0.0 0.0 0.00 0.00 0.00 93 1013.8
20260901073517 60 0.0 0.0 0.00 0.00 0.00 93 1013.8
20260901072517 60 0.0 0.0 0.00 0.00 0.00 93 1014.0
20260901071517 60 0.0 0.0 0.00 0.00 0.00 92 1014.0
20260901070517 59 0.0 1.0 0.00 0.00 0.00 92 1014.0
20260901065517 60 0.0 0.0 0.00 0.00 0.00 92 1014.2
20260901064517 60 0.0 1.0 0.00 0.00 0.00 92 1014.4
20260901063517 60 0.0 1.0 0.00 0.00 0.00 92 1014.4
20260901062517 60 0.0 2.0 0.00 0.00 0.00 92 1014.4
20260901061517 60 0.0 0.0 0.00 0.00 0.00 92 1014.4
20260901060537 60 0.0 2.0 0.00 0.00 0.00 91 1014.2
20260901055517 61 0.0 2.0 0.00 0.00 0.00 92 1014.1
20260901054517 61 0.0 0.0 0.00 0.00 0.00 92 1014.2
20260901053517 61 0.0 0.0 0.00 0.00 0.00 92 1014.0
20260901052517 61 0.0 0.0 0.00 0.00 0.00 92 1013.9
20260901051517 62 0.0 0.0 0.00 0.00 0.00 92 1013.9
20260901050516 61 0.0 0.0 0.00 0.00 0.00 91 1013.7
20260901050017 61 0.0 2.0 0.00 0.00 0.00 91 1013.7
20260901045015 62 0.0 0.0 0.00 0.00 0.00 91 1013.6
20260901044015 63 0.0 0.0 0.00 0.00 0.00 91 1013.6
20260901043015 63 0.0 2.0 0.00 0.00 0.00 91 1013.6
20260901042015 63 0.0 2.0 0.00 0.00 0.00 91 1013.5
20260901041015 63 0.0 0.0 0.00 0.00 0.00 91 1013.4
20260901040015 63 0.0 1.0 0.00 0.00 0.00 90 1013.4
20260901035035 64 0.0 0.0 0.00 0.00 0.00 90 1013.3
20260901034016 65 0.0 2.0 0.00 0.00 0.00 90 1013.3
20260901033035 65 0.0 0.0 0.00 0.00 0.00 90 1013.3
20260901032015 65 0.0 0.0 0.00 0.00 0.00 90 1013.2
20260901031037 65 0.0 0.0 0.00 0.00 0.00 90 1013.1
20260901030017 66 0.0 2.0 0.00 0.00 0.00 90 1013.2
20260901025017 66 0.0 0.0 0.00 0.00 0.00 89 1013.0
20260901024017 67 0.0 0.0 0.00 0.00 0.00 89 1013.1
20260901023017 67 0.0 0.0 0.00 0.00 0.00 89 1013.0
20260901022017 68 0.0 1.0 0.00 0.00 0.00 89 1013.0
20260901021017 68 0.0 1.0 0.00 0.00 0.00 88 1012.9
20260901020017 69 0.0 0.0 0.00 0.00 0.00 87 1013.0
20260901015017 70 0.0 0.0 0.00 0.00 0.00 87 1012.9
20260901014017 70 0 1.0 2.0 0.00 0.00 0.00 87 1012.8
20260901013017 71 0.0 2.0 0.00 0.00 0.00 85 1012.5
20260901012017 72 0.0 1.0 0.00 0.00 0.00 84 1012.4
20260901011017 74 0.0 0.0 0.00 0.00 0.00 83 1012.4
20260901010017 75 0.0 1.0 0.00 0.00 0.00 80 1012.3
20260831234015 83 315 4.0 6.0 0.00 0.00 0.00 62 1012.4
20260831233015 84 315 4.0 6.0 0.00 0.00 0.00 60 1012.3
20260831232016 84 315 4.0 6.0 0.00 0.00 0.00 59 1012.3
20260831231016 84 315 4.0 7.0 0.00 0.00 0.00 58 1012.4
20260831230016 85 315 5.0 8.0 0.00 0.00 0.00 59 1012.4
20260831225015 85 315 6.0 9.0 0.00 0.00 0.00 58 1012.4
20260831224035 86 315 5.0 7.0 0.00 0.00 0.00 59 1012.3
20260831223016 86 315 5.0 7.0 0.00 0.00 0.00 59 1012.3
20260831222016 86 315 4.0 6.0 0.00 0.00 0.00 57 1012.4
20260831221015 85 315 5.0 6.0 0.00 0.00 0.00 59 1012.3
20260831220015 84 315 4.0 6.0 0.00 0.00 0.00 61 1012.2
20260831215035 85 315 5.0 8.0 0.00 0.00 0.00 59 1012.1
20260831214015 86 315 4.0 6.0 0.00 0.00 0.00 58 1012.1
20260831213015 85 338 4.0 6.0 0.00 0.00 0.00 57 1011.8
20260831212015 87 293 7.0 11.0 0.00 0.00 0.00 55 1011.9
20260831211015 87 270 4.0 7.0 0.00 0.00 0.00 57 1011.8
20260831210015 87 338 6.0 8.0 0.00 0.00 0.00 58 1011.9
20260831205015 87 0 4.0 6.0 0.00 0.00 0.00 57 1011.7
20260831204015 87 338 5.0 8.0 0.00 0.00 0.00 54 1011.8
20260831203015 87 315 4.0 7.0 0.00 0.00 0.00 53 1011.6
20260831202015 87 338 4.0 6.0 0.00 0.00 0.00 57 1011.8
20260831201015 87 315 5.0 7.0 0.00 0.00 0.00 59 1011.7
20260831200017 87 0 4.0 6.0 0.00 0.00 0.00 60 1011.7
20260831195017 87 293 5.0 7.0 0.00 0.00 0.00 65 1011.6
20260831194037 87 338 3.0 6.0 0.00 0.00 0.00 66 1011.7
20260831193037 86 315 5.0 7.0 0.00 0.00 0.00 58 1011.7
20260831192017 86 315 4.0 7.0 0.00 0.00 0.00 63 1011.7
20260831191017 86 338 5.0 8.0 0.00 0.00 0.00 62 1011.6
20260831190017 86 338 5.0 8.0 0.00 0.00 0.00 62 1011.7
20260831185017 86 0 5.0 7.0 0.00 0.00 0.00 60 1011.6
20260831184017 86 338 4.0 9.0 0.00 0.00 0.00 63 1011.6
20260831183037 85 315 5.0 8.0 0.00 0.00 0.00 65 1011.7
20260831182017 85 293 4.0 8.0 0.00 0.00 0.00 68 1011.7
20260831181017 84 338 6.0 8.0 0.00 0.00 0.00 66 1011.6
20260831180017 83 315 4.0 9.0 0.00 0.00 0.00 73 1011.7
20260831175017 83 315 4.0 7.0 0.00 0.00 0.00 74 1011.7
20260831174037 83 315 4.0 7.0 0.00 0.00 0.00 75 1011.7
20260831173037 83 338 3.0 6.0 0.00 0.00 0.00 76 1011.7
20260831172017 82 338 4.0 6.0 0.00 0.00 0.00 77 1011.8
20260831171017 82 338 4.0 7.0 0.00 0.00 0.00 77 1012.0
20260831170017 82 315 5.0 9.0 0.00 0.00 0.00 79 1012.2
20260831165017 82 0 5.0 8.0 0.00 0.00 0.00 77 1011.9